NEONSAT-1 (59587 NORAD) Tracking and Keplerian Element Data

This shows tracking and keplerian element data for the satellite.

Feedback or suggestion? Click here.




ElementValue
Catalog59587
NameNEONSAT-1
Epoch Orbit685
Epoch Day160.16625066
Epoch Year2024
RAAN239.9195
Inclination97.4132
Eccentricity0.0016873
Argument of Perigee121.013
Mean Anonmoly239.2763
Mean Motion15.17083575
Decay Rate0.00014812
L11 59587U 24077A 24160.16625066 .00014812 00000+0 74759-3 0 9999
L22 59587 97.4132 239.9195 0016873 121.0130 239.2763 15.17083575 6856



Live tracking and technical data element details for NEONSAT-1 (NORAD 59587). NEONSAT-1 can be tracked NOW for your location showing map with azimuth and elevation plus other details from your city location.







IsCatalogInMostPopularTable: catalog: 59587, numindb: 13
Update: records affected: 1



GetName: 59587 NEONSAT-1

Hit Count: updated at: Fri, 14 Jun 2024 19:52:43 GMT